User: anonymous   Login
Location: Fort Wayne
(41.1310°N, 85.1290°W)
Time: 15:34:18
(UTC-04:00)
Language:

Cosmos 2219 Rocket - Orbit

View from above orbital plane
View from above orbital plane
View from above satellite
View from above satellite

Ground track
Ground track

The orbit data is extracted from the following two-line orbital elements,

1 22220U 92076B   17115.72748553 +.00000001 +00000-0 +24420-4 0  9995
2 22220 070.9990 169.6764 0013272 343.1349 156.2716 14.16412228263016
Epoch (UTC): 25 April 2017 17:27:34
Eccentricity: 0.0013272
inclination: 70.9990°
perigee height: 828 km
apogee height: 847 km
right ascension of ascending node: 169.6764°
argument of perigee: 343.1349°
revolutions per day: 14.16412228
mean anomaly at epoch: 156.2716°
orbit number at epoch: 26301

The dashed part of the orbit path shows where the satellite is in the earth's shadow,  

DLR